This is the latest recevied weather packets stored in our database for station/object OH6GKW. If no packets are shown the sender has not sent any weather packets the latest 1 day(s).
| Time | Temp. | Humidity | Pressure | Rain* | Wind** | Luminosity | Snow |
|---|---|---|---|---|---|---|---|
| 1777998514 | 8.89° C | 49% | 999 hPa | 0.51 mm | 3.13 m/s, 245° | 222 W/m² | - |
| 1777998238 | 8.89° C | 52% | 999 hPa | 0.51 mm | 2.68 m/s, 224° | 282 W/m² | - |
| 1777997929 | 8.33° C | 50% | 999 hPa | 0.51 mm | 3.13 m/s, 233° | 287 W/m² | - |
| 1777997622 | 8.33° C | 54% | 999 hPa | 0.51 mm | 2.68 m/s, 293° | 301 W/m² | - |
| 1777997313 | 8.33° C | 53% | 999 hPa | 0.51 mm | 2.68 m/s, 241° | 113 W/m² | - |
| 1777997029 | 8.33° C | 53% | 999 hPa | 0.51 mm | 3.13 m/s, 206° | 294 W/m² | - |
| 1777996719 | 8.33° C | 54% | 999 hPa | 0.51 mm | 3.58 m/s, 227° | 299 W/m² | - |
| 1777996412 | 8.33° C | 54% | 999 hPa | 0.51 mm | 3.58 m/s, 206° | 188 W/m² | - |
| 1777996120 | 8.33° C | 54% | 999 hPa | 0.51 mm | 3.58 m/s, 255° | 282 W/m² | - |
| 1777995816 | 8.33° C | 54% | 998.9 hPa | 0.51 mm | 3.13 m/s, 275° | 262 W/m² | - |
| 1777995509 | 8.33° C | 55% | 998.9 hPa | 0.51 mm | 3.13 m/s, 269° | 130 W/m² | - |
| 1777995235 | 8.33° C | 54% | 998.9 hPa | 0.51 mm | 3.13 m/s, 228° | 347 W/m² | - |
| 1777994925 | 8.33° C | 54% | 998.8 hPa | 0.51 mm | 3.58 m/s, 220° | 373 W/m² | - |
| 1777994620 | 8.33° C | 54% | 998.8 hPa | 0.51 mm | 4.02 m/s, 262° | 394 W/m² | - |
| 1777994311 | 8.89° C | 52% | 998.8 hPa | 0.51 mm | 4.02 m/s, 243° | 396 W/m² | - |
| 1777994008 | 8.89° C | 50% | 998.6 hPa | 0.51 mm | 3.58 m/s, 228° | 377 W/m² | - |
| 1777993724 | 8.89° C | 48% | 998.6 hPa | 0.51 mm | 3.58 m/s, 257° | 391 W/m² | - |
| 1777993418 | 8.89° C | 46% | 998.6 hPa | 0.51 mm | 4.02 m/s, 285° | 396 W/m² | - |
| 1777993108 | 8.89° C | 47% | 998.6 hPa | 0.51 mm | 4.47 m/s, 247° | 403 W/m² | - |
| 1777992822 | 8.89° C | 46% | 998.6 hPa | 0.51 mm | 4.02 m/s, 292° | 412 W/m² | - |
| 1777992516 | 8.89° C | 46% | 998.6 hPa | 0.51 mm | 4.47 m/s, 261° | 421 W/m² | - |
| 1777992238 | 8.89° C | 45% | 998.5 hPa | 0.51 mm | 4.92 m/s, 237° | 428 W/m² | - |
| 1777991933 | 8.89° C | 44% | 998.5 hPa | 0.51 mm | 4.47 m/s, 207° | 438 W/m² | - |
| 1777991628 | 8.89° C | 42% | 998.5 hPa | 0.51 mm | 4.02 m/s, 254° | 445 W/m² | - |
| 1777991317 | 8.89° C | 43% | 998.5 hPa | 0.51 mm | 4.47 m/s, 226° | 454 W/m² | - |
* Rain since midnight (hover to see other rain measurements)
** Current wind speed in m/s (hover to see current wind gust speed)